TimeEDT,TemperatureF,Dew PointF,Humidity,Sea Level PressureIn,VisibilityMPH,Wind Direction,Wind SpeedMPH,Gust SpeedMPH,PrecipitationIn,Events,Conditions,WindDirDegrees,DateUTC
12:54 AM,45.0,39.9,82,30.29,10.0,NNE,3.5,-,N/A,,Partly Cloudy,30,2013-04-07 04:54:00
2:54 AM,43.0,39.9,89,30.25,10.0,NE,5.8,-,N/A,,Clear,40,2013-04-07 06:54:00
3:54 AM,43.0,39.9,89,30.24,9.0,Calm,Calm,-,N/A,,Clear,0,2013-04-07 07:54:00
4:54 AM,42.1,37.9,85,30.24,9.0,Calm,Calm,-,N/A,,Clear,0,2013-04-07 08:54:00
5:54 AM,43.0,39.9,89,30.25,10.0,North,3.5,-,N/A,,Clear,350,2013-04-07 09:54:00
6:54 AM,41.0,37.9,89,30.27,10.0,Calm,Calm,-,N/A,Fog,Shallow Fog,0,2013-04-07 10:54:00
7:54 AM,45.0,42.1,90,30.27,9.0,Calm,Calm,-,N/A,Fog,Shallow Fog,0,2013-04-07 11:54:00
8:54 AM,53.1,46.9,80,30.28,10.0,Variable,3.5,-,N/A,,Clear,0,2013-04-07 12:54:00
9:54 AM,60.1,48.0,64,30.28,10.0,ESE,3.5,-,N/A,,Clear,120,2013-04-07 13:54:00
10:54 AM,64.0,46.9,54,30.29,10.0,West,4.6,-,N/A,,Partly Cloudy,260,2013-04-07 14:54:00
11:54 AM,66.9,42.1,40,30.28,10.0,Variable,5.8,-,N/A,,Partly Cloudy,0,2013-04-07 15:54:00
12:54 PM,68.0,45.0,43,30.25,8.0,SSW,8.1,-,N/A,,Partly Cloudy,200,2013-04-07 16:54:00
1:54 PM,69.1,44.1,40,30.22,10.0,Variable,5.8,-,N/A,,Partly Cloudy,0,2013-04-07 17:54:00
2:54 PM,70.0,46.0,42,30.20,10.0,SW,11.5,17.3,N/A,,Partly Cloudy,220,2013-04-07 18:54:00
4:54 PM,68.0,46.0,45,30.18,10.0,South,12.7,18.4,N/A,,Scattered Clouds,180,2013-04-07 20:54:00
5:54 PM,66.0,46.9,50,30.17,10.0,SSW,12.7,-,N/A,,Mostly Cloudy,200,2013-04-07 21:54:00
6:54 PM,63.0,49.6,62,30.18,10.0,South,9.2,-,N/A,,Mostly Cloudy,180,2013-04-07 22:54:00
7:54 PM,61.0,48.9,64,30.18,10.0,South,4.6,-,N/A,,Mostly Cloudy,180,2013-04-07 23:54:00
8:54 PM,57.0,48.9,74,30.19,10.0,SE,4.6,-,N/A,,Clear,130,2013-04-08 00:54:00
9:54 PM,57.0,50.0,77,30.21,10.0,SSE,3.5,-,N/A,,Mostly Cloudy,150,2013-04-08 01:54:00
10:54 PM,54.0,48.9,83,30.20,10.0,SSE,3.5,-,N/A,,Mostly Cloudy,160,2013-04-08 02:54:00
11:54 PM,57.0,50.0,77,30.19,10.0,South,4.6,-,N/A,,Mostly Cloudy,180,2013-04-08 03:54:00